Showing default

GHOST-4, 59133

Orbit data source: Space-Track

GHOST-4, 59133 is a payload satellite owned by Orbital Sidekick (US) in SSO that was launched on Mon, 04 Mar 2024 UTC via an FALCON 9 launch vehicle from the Air Force Western Test Range (AFWTR). Payload-class satellites include a variety of spacecraft equipped with specific instruments for various scientific and technological missions. These include communications satellites like Starlink; space stations such as the ISS; scientific satellites like the Hubble; Earth observation satellites from companies like Planet Labs, Umbra, and HawkEye 360; GPS; miniature CubeSats for education and research; and military/defense satellites.

Loading next visibility...
Identifier
59133, 2024-043AM
Orbit
SSO
Country
Flag of USUS
Related business
Manufacturer
Astro Digital
Mission
Operational Commercial Imaging
Bus & Motor
CORVUS-XL, Unknown motor
Mass
85 kg wet, 85 kg dry
Launch date (UTC)
2024-03-04 (3 years ago)
Launch vehicle
FALCON 9
Launch site
Air Force Western Test Range (AFWTR)
Object type
Payload
Rocket body
Debris
Shape & HBR
Box + 1 Dish, 1.0 m
Radar Cross Section
0.425 m², Medium (>0.1 m² and < 1m²)

Expand to show TLE details & history
Last TLE update: 13 hours ago

TLE from 13 hours ago
0 GHOST-4
1 59133U 24043AM  26253.37936058  .00013211  00000-0  27772-3 0  9999
2 59133  97.5714  41.7794 0006386 268.6152  91.4365 15.45439105140685
Epoch: 2026-09-10T09:06Z
TLE epoch observation values (Epoch: 2026-09-10T09:06:16.754Z)
Latitude
0.00001°
Longitude
-84.20832°
Altitude
433.32 km
Speed
7.652 km/s
True Right ascension
02h 47m 07s
True Declination
0° 00' 00"
Sunlit
Object was in full shadow at epoch
Visualization orbit readout
Latitude
Unknown
Longitude
Unknown
Altitude
Unknown
Speed
Unknown
Apparent Right ascension
Unknown
Apparent Declination
Unknown
Sunlit
N/A
Visualization observer readout
Local Sidereal Time
14:24:01
Azimuth
Unknown
Elevation
Unknown
Doppler factor
Unknown
Orbital elements
Apogee altitude
431.373 km
Perigee altitude
422.682 km
Semi-major axis
6,805.164 km
Eccentricity
0.00064
Inclination
97.5714°
RAAN
41.7794°
Arg. of periapsis
268.6152°
True anomaly
91.50965°
Mean anomaly
91.4365°
Eccentric anomaly
91.47308°
Mean motion
3.86621 °/min
Orbital period
93.11 mins
BSTAR
0.00027772
Loading maneuver chart data...
Computing Atmospheric mass density...
Loading historical data...
Loading historical data...
Loading historical data...
Loading historical data...
Loading historical data...
Loading historical data...
Loading historical data...

Documentation

Showing up to 5 results
|